Medford, WI

8:11 AM CDT on March 24, 2017 (GMT -0500)
Taylor County

Weather History for KMDZ - June, 2012

Change the Weather History Date:

Wednesday, June 27, 2012

  Actual Average Record
Temperature  
Mean Temperature 73 °F -  
Max Temperature 86 °F 78 °F 91 °F (2005)
Min Temperature 60 °F 54 °F 36 °F (1992)
Cooling Degree Days 8    
Growing Degree Days 23 (Base 50)    
Moisture  
Dew Point 63 °F    
Average Humidity 69    
Maximum Humidity 94    
Minimum Humidity 54    
Precipitation  
Precipitation 0.00 in - - ()
Sea Level Pressure  
Sea Level Pressure 29.79 in    
Wind  
Wind Speed 7 mph (South)    
Max Wind Speed 14 mph    
Max Gust Speed 21 mph    
Visibility 10 miles    
Events      
Averages and records for this station are not official NWS values.
T = Trace of Precipitation, MM = Missing Value Source: NWS Daily Summary

Daily Weather History Graph

Daily Weather History Graph

Search for Another Location

Airport or City:

Trip Planner

Search our weather history database for the weather conditions in past years. The results will help you decide how hot, cold, wet, or windy it might be!

Date:

Astronomy

Jun. 27, 2012 Rise Set
Actual Time 5:16 AM CDT 8:52 PM CDT
Civil Twilight 4:38 AM CDT 9:29 PM CDT
Nautical Twilight 3:48 AM CDT 10:19 PM CDT
Astronomical Twilight 2:42 AM CDT 11:25 PM CDT
Moon 2:05 PM CDT (6/27) 12:29 AM CDT (6/27)
Length of Visible Light 16h 51m
Length of Day
15h 36m
First Quarter, 56% of the Moon is Illuminated
Jun 27
First Quarter
Jul 3
Full
Jul 10
Last Quarter
Jul 18
New
Jul 26
First Quarter

Hourly Weather History & Observations

Time (CDT) Temp. Heat Index Dew Point Humidity Pressure Visibility Wind Dir Wind Speed Gust Speed Precip Events Conditions
12:15 AM 64.4 °F - 53.6 °F 68% 29.88 in 10.0 mi SSE 6.9 mph - N/A   Clear
12:35 AM 64.4 °F - 53.6 °F 68% 29.87 in 10.0 mi SSE 6.9 mph - N/A   Clear
12:55 AM 64.4 °F - 53.6 °F 68% 29.87 in 10.0 mi SSE 5.8 mph - N/A   Clear
1:15 AM 62.6 °F - 53.6 °F 72% 29.87 in 10.0 mi SSE 3.5 mph - N/A   Clear
1:35 AM 62.6 °F - 53.6 °F 72% 29.87 in 10.0 mi SSE 4.6 mph - N/A   Clear
1:55 AM 62.6 °F - 53.6 °F 72% 29.87 in 10.0 mi SSE 4.6 mph - N/A   Clear
2:15 AM 62.6 °F - 53.6 °F 72% 29.87 in 10.0 mi SSE 4.6 mph - N/A   Clear
2:35 AM 62.6 °F - 53.6 °F 72% 29.86 in 10.0 mi SE 5.8 mph - N/A   Clear
2:55 AM 62.6 °F - 53.6 °F 72% 29.85 in 10.0 mi SE 4.6 mph - N/A   Clear
3:15 AM 62.6 °F - 53.6 °F 72% 29.85 in 10.0 mi SE 6.9 mph - N/A   Clear
3:35 AM 62.6 °F - 53.6 °F 72% 29.84 in 10.0 mi SE 4.6 mph - N/A   Clear
3:55 AM 60.8 °F - 53.6 °F 77% 29.84 in 10.0 mi SE 4.6 mph - N/A   Clear
4:15 AM 60.8 °F - 53.6 °F 77% 29.84 in 10.0 mi SE 4.6 mph - N/A   Clear
4:35 AM 60.8 °F - 53.6 °F 77% 29.84 in 10.0 mi SE 5.8 mph - N/A   Clear
4:55 AM 60.8 °F - 53.6 °F 77% 29.84 in 10.0 mi SSE 5.8 mph - N/A   Clear
5:15 AM 60.8 °F - 53.6 °F 77% 29.84 in 10.0 mi SSE 5.8 mph - N/A   Clear
5:55 AM 60.8 °F - 53.6 °F 77% 29.85 in 10.0 mi SE 5.8 mph - N/A   Clear
6:15 AM 62.6 °F - 53.6 °F 72% 29.84 in 10.0 mi SE 6.9 mph - N/A   Clear
6:35 AM 62.6 °F - 55.4 °F 77% 29.85 in 10.0 mi SE 8.1 mph - N/A   Clear
6:55 AM 64.4 °F - 55.4 °F 73% 29.84 in 10.0 mi SSE 9.2 mph - N/A   Clear
7:15 AM 64.4 °F - 55.4 °F 73% 29.83 in 10.0 mi SSE 8.1 mph 16.1 mph N/A   Clear
7:55 AM 66.2 °F - 57.2 °F 73% 29.83 in 10.0 mi SSE 8.1 mph - N/A   Clear
8:15 AM 68.0 °F - 57.2 °F 68% 29.83 in 10.0 mi South 9.2 mph - N/A   Clear
8:35 AM 69.8 °F - 57.2 °F 64% 29.83 in 10.0 mi South 11.5 mph 18.4 mph N/A   Clear
8:55 AM 71.6 °F - 57.2 °F 60% 29.81 in 10.0 mi South 12.7 mph 16.1 mph N/A   Clear
9:15 AM 71.6 °F - 59.0 °F 64% 29.81 in 10.0 mi South 9.2 mph - N/A   Clear
9:35 AM 73.4 °F - 59.0 °F 61% 29.80 in 10.0 mi South 11.5 mph - N/A   Clear
9:55 AM 75.2 °F - 60.8 °F 61% 29.80 in 10.0 mi South 10.4 mph - N/A   Clear
10:15 AM 75.2 °F - 60.8 °F 61% 29.80 in 10.0 mi South 10.4 mph - N/A   Clear
10:35 AM 75.2 °F - 60.8 °F 61% 29.80 in 10.0 mi South 10.4 mph - N/A   Clear
10:55 AM 77.0 °F - 62.6 °F 61% 29.80 in 10.0 mi SSE 6.9 mph - N/A   Clear
11:15 AM 78.8 °F - 62.6 °F 57% 29.80 in 10.0 mi South 9.2 mph - N/A   Clear
11:35 AM 78.8 °F - 62.6 °F 57% 29.80 in 10.0 mi South 9.2 mph - N/A   Clear
11:55 AM 78.8 °F - 62.6 °F 57% 29.79 in 10.0 mi South 9.2 mph - N/A   Clear
12:15 PM 80.6 °F 82.3 °F 64.4 °F 58% 29.77 in 10.0 mi SSE 10.4 mph - N/A   Clear
12:35 PM 80.6 °F 82.3 °F 64.4 °F 58% 29.76 in 10.0 mi SSE 11.5 mph 17.3 mph N/A   Clear
12:55 PM 80.6 °F 82.3 °F 64.4 °F 58% 29.75 in 10.0 mi South 12.7 mph 17.3 mph N/A   Clear
1:15 PM 80.6 °F 82.3 °F 64.4 °F 58% 29.75 in 10.0 mi South 11.5 mph 17.3 mph N/A   Clear
1:35 PM 80.6 °F 82.3 °F 64.4 °F 58% 29.74 in 10.0 mi South 11.5 mph 20.7 mph N/A   Clear
1:55 PM 82.4 °F 84.6 °F 66.2 °F 58% 29.75 in 10.0 mi South 10.4 mph - N/A   Clear
2:15 PM 82.4 °F 83.9 °F 64.4 °F 54% 29.74 in 10.0 mi South 12.7 mph - N/A   Clear
2:35 PM 82.4 °F 84.6 °F 66.2 °F 58% 29.73 in 10.0 mi South 12.7 mph 18.4 mph N/A   Clear
2:55 PM 84.2 °F 87.3 °F 68.0 °F 58% 29.72 in 10.0 mi South 11.5 mph 17.3 mph N/A   Clear
3:15 PM 84.2 °F 88.4 °F 69.8 °F 62% 29.71 in 10.0 mi South 11.5 mph - N/A   Clear
3:35 PM 84.2 °F 87.3 °F 68.0 °F 58% 29.71 in 10.0 mi SSW 12.7 mph 17.3 mph N/A   Clear
3:55 PM 84.2 °F 88.4 °F 69.8 °F 62% 29.71 in 10.0 mi South 9.2 mph - N/A   Clear
4:15 PM 86.0 °F 89.4 °F 68.0 °F 55% 29.71 in 10.0 mi South 10.4 mph 17.3 mph N/A   Clear
4:35 PM 86.0 °F 90.4 °F 69.8 °F 58% 29.71 in 10.0 mi SSW 13.8 mph 18.4 mph N/A   Clear
4:55 PM 84.2 °F 88.4 °F 69.8 °F 62% 29.72 in 10.0 mi SW 12.7 mph 17.3 mph N/A   Clear
5:15 PM 84.2 °F 88.4 °F 69.8 °F 62% 29.72 in 10.0 mi SW 12.7 mph - N/A   Clear
5:35 PM 84.2 °F 88.4 °F 69.8 °F 62% 29.73 in 10.0 mi SSW 13.8 mph 18.4 mph N/A   Clear
5:55 PM 84.2 °F 88.4 °F 69.8 °F 62% 29.75 in 10.0 mi WSW 10.4 mph - N/A   Clear
6:15 PM 84.2 °F 89.6 °F 71.6 °F 66% 29.75 in 10.0 mi WSW 6.9 mph - N/A   Clear
6:35 PM 84.2 °F 89.6 °F 71.6 °F 66% 29.75 in 10.0 mi West 8.1 mph - N/A   Clear
6:55 PM 82.4 °F 87.2 °F 71.6 °F 70% 29.75 in 10.0 mi West 3.5 mph - N/A   Clear
7:15 PM 82.4 °F 87.2 °F 71.6 °F 70% 29.76 in 10.0 mi Calm Calm - N/A   Clear
7:35 PM 80.6 °F 85.4 °F 73.4 °F 79% 29.74 in 10.0 mi Calm Calm - N/A   Clear
7:55 PM 80.6 °F 84.6 °F 71.6 °F 74% 29.73 in 10.0 mi Calm Calm - N/A   Clear
8:15 PM 78.8 °F - 71.6 °F 78% 29.75 in 10.0 mi Calm Calm - N/A   Clear
8:35 PM 77.0 °F - 71.6 °F 83% 29.76 in 10.0 mi SW 3.5 mph - N/A   Clear
8:55 PM 75.2 °F - 71.6 °F 89% 29.75 in 10.0 mi Calm Calm - N/A   Clear
9:15 PM 73.4 °F - 69.8 °F 88% 29.75 in 10.0 mi Calm Calm - N/A   Clear
9:35 PM 73.4 °F - 69.8 °F 88% 29.75 in 10.0 mi SSE 3.5 mph - N/A   Clear
9:55 PM 73.4 °F - 69.8 °F 88% 29.74 in 10.0 mi SSE 4.6 mph - N/A   Clear
10:15 PM 73.4 °F - 69.8 °F 88% 29.74 in 10.0 mi South 6.9 mph - N/A   Clear
10:35 PM 73.4 °F - 69.8 °F 88% 29.74 in 7.0 mi Calm Calm - N/A   Clear
10:55 PM 71.6 °F - 69.8 °F 94% 29.76 in 10.0 mi Calm Calm - N/A   Clear
11:55 PM 71.6 °F - 69.8 °F 94% 29.77 in 7.0 mi Calm Calm - N/A   Clear